GFSNIL_sfc_temp_336.txt.gz
Temp
57 56 58 58 59 60 60 60 61 60 60 61 61 60 60 60 60 61 60 60 60 60
57 57 58 57 58 59 60 60 61 60 59 61 60 59 59 58 58 58 58 58 58 59
56 57 58 57 57 57 59 60 59 60 60 60 59 59 59 58 58 58 57 56 54 52
56 57 57 56 57 57 57 58 59 59 57 55 55 54 55 56 58 56 54 53 52 51
56 55 55 56 56 55 53 52 52 53 52 53 54 54 54 52 52 52 50 50 50 49
54 55 55 51 50 50 50 50 51 51 51 52 52 53 52 50 49 47 47 47 47 47
54 52 50 49 48 47 48 47 48 49 49 50 51 52 51 50 48 48 47 46 46 45
54 52 49 48 47 47 46 46 47 46 47 47 48 50 50 50 48 46 44 43 45 45
54 52 49 47 46 45 45 44 44 43 44 44 46 48 49 47 44 43 41 40 41 44
52 51 49 47 45 44 43 43 43 42 43 42 44 45 46 46 42 41 42 41 41 43
49 49 48 46 45 43 43 42 41 42 42 42 45 45 45 45 44 43 42 42 41 41
47 47 49 45 44 44 42 40 40 40 41 41 43 44 44 43 43 42 42 43 45 43
45 45 47 45 43 42 42 40 41 40 40 42 42 43 43 44 44 42 43 44 44 43
43 44 45 45 45 43 40 39 39 39 40 41 42 43 43 43 43 43 42 41 42 43

GFSNIL_sfc_temp_339.txt.gz
Temp
67 69 68 68 67 68 68 70 69 70 70 68 67 63 61 61 61 61 62 61 62 62
65 64 64 64 65 67 65 66 67 68 68 68 67 65 62 61 60 60 60 59 60 59
64 63 61 61 59 57 57 57 60 61 61 58 59 63 64 61 61 59 58 56 55 54
61 61 58 54 52 52 52 52 54 55 56 56 55 56 59 57 56 55 54 55 54 53
57 54 53 51 51 50 50 51 52 53 53 54 54 53 52 51 50 47 46 47 49 49
56 53 50 52 52 50 49 50 51 52 50 51 52 52 51 50 49 53 47 45 45 44
52 50 49 50 52 50 48 49 49 50 50 51 51 52 51 49 47 47 46 46 46 45
51 50 49 48 48 49 48 47 47 47 49 48 48 49 47 46 44 43 43 43 44 45
52 50 48 48 52 52 51 51 51 50 50 47 46 46 47 45 42 42 41 42 44 46
52 49 47 48 50 50 49 50 50 50 50 48 48 45 46 46 46 47 49 49 50 50
52 49 50 50 47 49 50 49 49 50 50 50 50 45 44 47 51 50 49 49 50 51
50 49 47 45 48 50 50 50 50 50 47 46 47 44 44 47 48 48 49 50 49 51
48 48 46 46 49 50 51 49 49 48 47 46 46 43 43 48 51 49 51 51 52 45
51 47 47 51 52 51 48 47 46 46 48 48 47 47 43 43 53 53 53 51 49 50

GFSNIL_sfc_temp_342.txt.gz
Temp
71 72 71 67 64 63 62 64 61 65 68 71 71 69 68 65 64 63 61 61 61 61
70 67 64 60 57 57 57 56 56 60 60 60 64 62 63 62 64 63 59 58 56 56
67 66 63 61 57 54 53 53 53 56 58 59 60 62 60 56 55 54 52 53 52 52
64 61 59 59 57 55 52 51 52 53 55 56 56 57 57 55 51 50 48 48 49 48
58 55 53 53 56 55 52 52 52 53 53 55 56 55 53 52 53 51 49 50 46 46
58 54 50 55 57 58 55 52 52 53 51 50 53 51 50 49 48 48 49 53 51 48
53 51 49 53 58 58 59 59 56 52 51 51 50 48 48 47 46 46 46 47 49 48
51 51 50 53 57 58 58 58 53 51 52 50 48 47 45 45 44 44 44 45 47 49
52 53 53 55 57 58 56 54 53 51 51 51 51 47 47 48 49 52 55 54 52 52
53 53 52 57 57 55 51 51 51 51 51 50 51 46 46 48 54 54 54 54 56 56
51 51 50 56 53 52 52 50 51 53 51 48 47 45 45 48 54 53 53 53 52 53
51 51 56 52 52 52 52 52 53 53 50 48 50 44 44 49 54 54 54 55 53 55
53 54 52 52 52 51 53 52 54 53 52 50 51 44 44 47 57 54 54 54 54 46
56 54 54 53 51 49 49 49 49 49 51 51 51 51 44 44 55 54 55 54 52 52

GFSNIL_sfc_temp_345.txt.gz
Temp
69 64 64 61 60 57 55 55 56 56 57 62 65 67 68 67 64 61 58 56 56 56
64 61 60 58 58 58 54 53 53 54 55 57 60 62 63 59 57 53 51 51 50 51
65 62 61 59 56 57 55 52 52 52 53 57 58 58 58 56 54 52 50 49 49 48
64 63 60 61 58 59 59 53 51 51 51 55 56 55 54 54 53 52 51 51 49 48
60 57 54 57 57 58 57 57 56 52 51 51 53 51 50 49 49 48 50 51 52 53
54 53 56 57 57 58 56 54 54 54 51 49 49 50 49 47 47 47 48 49 49 49
57 57 58 57 57 55 54 53 53 53 54 53 51 49 48 47 45 45 46 48 50 50
58 58 58 57 54 54 53 53 53 52 52 53 55 51 49 50 50 53 54 55 55 53
52 57 57 53 54 53 53 53 53 52 51 50 52 47 48 52 53 54 53 54 56 57
53 57 54 56 55 53 53 53 53 51 52 51 51 46 46 48 54 53 52 54 54 55
57 54 57 54 54 53 54 53 52 52 52 53 53 46 45 46 55 54 54 53 54 55
56 56 54 53 51 52 52 52 51 52 53 53 55 46 45 48 56 55 56 56 54 54
59 55 53 52 51 53 52 51 52 51 52 52 55 45 45 47 56 53 53 54 53 47
58 58 57 55 55 54 53 51 50 49 50 51 52 51 45 45 56 52 53 55 53 53